Tiempo atmosférico en la estación meteorológica de Buitrago del Lozoya, Madrid (1026 m.)



Fecha
DESCASC
Temp. máxima en grados centígrados (hora)
DESCASC
Temp. mínima en grados centígrados (hora)
DESCASC
Temp. media en grados centígrados
DESCASC
Racha de viento máxima en m/sg (hora)
DESCASC
Velocidad máxima media en intervalos de 10 minutos(hora)
DESCASC
Precipitaciones diarias en mm
DESCASC
Precipitaciones de 00:00 a 06:00 en mm
DESCASC
Precipitaciones de 06:00 a 12:00 en mm
DESCASC
Precipitaciones de 12:00 a 18:00 en mm
DESCASC
Precipitaciones de 18:00 a 24:00 en mm
DESCASC
07-01-2021 1.4 (16:20) -7.6 (-00:0) -3.1 2.5 (19:30) 1.67 (19:20) 0 0 0 0 0
08-01-2021 2.6 (14:20) -9.3 (-00:0) -3.4 3.06 (10:00) 1.67 (08:40) 0 0 0 0 0
23-12-2020 8.5 (13:00) 3 (00:00) 5.8 3.61 (13:40) 1.94 (16:10) 0 0 0 0 0
06-01-2021 5.2 (15:50) -8.3 (-00:0) -1.6 3.61 (17:00) 1.94 (17:00) 0 0 0 0 0
19-01-2021 8.7 (14:00) -5.7 (-00:0) 1.5 4.17 (14:20) 2.22 (14:40) 0 0 0 0 0
09-01-2021 0.6 (15:00) -2 (-00:0) -0.7 4.72 (19:20) 2.22 (20:10) 0 0 0 0 0
18-01-2021 11.5 (15:00) -3 (-00:0) 4.3 5 (17:20) 2.22 (01:50) 0 0 0 0 0
05-01-2021 3.9 (13:10) -8 (-00:0) -2 5.56 (15:20) 2.78 (15:10) 0 0 0 0 0
12-01-2021 9.2 (14:00) -11.3 (-00:0) -1.1 5.83 (13:40) 2.78 (13:40) 0 0 0 0 0
21-01-2021 8.3 (12:10) 2.9 (00:00) 5.6 6.67 (16:40) 3.33 (16:50) 0 0 0 0 0
17-01-2021 13.8 (13:20) -3.6 (-00:0) 5.1 6.67 (14:40) 3.06 (14:40) 0 0 0 0 0
20-01-2021 3.4 (19:30) -3.1 (-00:0) 0.2 7.22 (06:40) 3.89 (06:30) 0 0 0 0 0
31-12-2020 6.8 (13:10) -2.8 (-00:0) 2 7.22 (23:40) 3.33 (23:10) 0 0 0 0 0
13-01-2021 13.2 (15:00) -6.3 (-00:0) 3.4 8.61 (13:50) 2.78 (13:40) 0 0 0 0 0
24-12-2020 7.6 (12:30) 2.1 (00:00) 4.8 8.89 (14:20) 4.72 (11:50) 0 0 0 0 0
10-01-2021 4.7 (13:30) -5.4 (09:30) -0.4 9.44 (21:30) 4.44 (21:30) 0 0 0 0 0
04-01-2021 4.2 (15:10) -1.1 (-00:0) 1.5 9.72 (13:20) 4.72 (11:50) 0 0 0 0 0
25-12-2020 5.5 (15:00) -1.2 (-00:0) 2.1 10.56 (14:10) 5 (14:20) 0 0 0 0 0
30-12-2020 4.8 (14:20) -0.7 (-00:0) 2.1 11.39 (14:50) 6.11 (14:50) 0 0 0 0 0
14-01-2021 11.4 (12:10) -3.8 (04:30) 3.8 11.39 (17:30) 6.11 (12:50) 0 0 0 0 0
16-01-2021 12.3 (14:50) -0.7 (-00:0) 5.8 11.39 (06:40) 5 (06:50) 0 0 0 0 0
26-12-2020 5.4 (14:40) -3.3 (-00:0) 1.1 12.5 (12:40) 5.83 (12:40) 0 0 0 0 0
29-12-2020 4.5 (15:10) 0.2 (00:00) 2.4 12.78 (19:50) 6.39 (22:00) 0 0 0 0 0
11-01-2021 2.9 (14:40) -10.6 (-00:0) -3.9 13.06 (02:50) 6.39 (02:40) 0 0 0 0 0
01-01-2021 3.1 (12:10) -1.2 (-00:0) 0.9 13.33 (19:20) 6.39 (20:30) 0 0 0 0 0
03-01-2021 4.7 (15:40) -2.4 (-00:0) 1.1 13.61 (01:40) 5.83 (12:20) 0 0 0 0 0
15-01-2021 8.2 (15:00) 2.4 (00:00) 5.3 14.72 (06:00) 7.22 (06:10) 0 0 0 0 0
02-01-2021 0.3 (15:30) -2.9 (-00:0) -1.3 15 (18:40) 7.5 (17:50) 0 0 0 0 0
27-12-2020 7.4 (22:30) -4.9 (-00:0) 1.3 18.33 (23:50) 7.22 (23:50) 0 0 0 0 0
28-12-2020 7.3 (03:00) 1.4 (00:00) 4.4 20.28 (03:50) 9.72 (05:00) 0 0 0 0 0

Gráficas

Temp. máximas Temp. mínimas Temp. medias Precipitaciones Rachas de viento máximas Velocidades máximas media en intervalos de 10 minutos

Datos horarios

Fecha y hora oficial Temperatura (ºC) Velocidad del viento (km/h) Dirección del viento Racha (km/h) Dirección de racha Precipitación (mm) Presión (hPa) Tendencia (hPa) Humedad (%)
2021-01-21 23:00:00 7.1 5 Sudeste 18 Este 0 895.5 -- 83
2021-01-21 22:00:00 7.1 5 Sudeste 13 Sudeste 0 896.1 -- 82
2021-01-21 21:00:00 7.1 3 Nordeste 13 Este 0 896.7 -- 82
2021-01-21 20:00:00 7.1 2 Sudeste 19 Sudeste 0 897 -- 82
2021-01-21 19:00:00 7 3 Noroeste 19 Sudeste 0 896.9 -- 83
2021-01-21 18:00:00 7 8 Sudeste 16 Este 0 896.7 -- 81
2021-01-21 17:00:00 7 11 Sudeste 24 Sudeste 0 896.6 -- 80
2021-01-21 16:00:00 7.2 5 Sudeste 15 Sudeste 0 897.1 -- 79
2021-01-21 15:00:00 7.3 4 Este 18 Este 0 897.2 -- 73
2021-01-21 14:00:00 7 8 Este 19 Este 0 897 -- 73
2021-01-21 13:00:00 7.3 7 Este 23 Sudeste 0 898.4 -- 70
2021-01-21 12:00:00 8.2 7 Este 20 Sudeste 0 898.6 -- 75
2021-01-21 11:00:00 5.3 12 Sudeste 21 Sudeste 0 898.6 -- 80
2021-01-21 10:00:00 6.7 6 Sudeste 22 Sudeste 0 898.3 -- 67
2021-01-21 09:00:00 6 2 Sudoeste 21 Oeste 0 898.3 -- 73
2021-01-21 08:00:00 5.4 6 Sudoeste 17 Sudoeste 0 898.5 -- 81
2021-01-21 07:00:00 4.2 0 Calma 14 Sudoeste 0 898.4 -- 83
2021-01-21 06:00:00 4.3 2 Este 7 Este 0 897.8 -- 82
2021-01-21 05:00:00 4.5 5 Nordeste 16 Oeste 0 897.4 -- 80
2021-01-21 04:00:00 4.6 2 Oeste 19 Oeste 0 897.1 -- 82
2021-01-21 03:00:00 4.3 3 Este 8 Nordeste 0 896.9 -- 86
2021-01-21 02:00:00 4.1 3 Nordeste 8 Este 0 896.5 -- 86
2021-01-21 01:00:00 3.5 3 Nordeste 10 Nordeste 0 896.2 -- 86
2021-01-21 00:00:00 3 0 Calma 9 Nordeste 0 895.9 -- 86
2021-01-20 23:00:00 2.7 0 Calma 8 Oeste 0 895.4 -- 86
2021-01-20 22:00:00 2.7 0 Calma 9 Sudoeste 0 895.2 -- 86
2021-01-20 21:00:00 2.8 0 Calma 6 Nordeste 0 894.9 -- 86
2021-01-20 20:00:00 3.2 0 Calma 6 Sudoeste 0 894.7 -- 86
2021-01-20 19:00:00 3.2 3 Este 7 Nordeste 0 894.4 -- 86
2021-01-20 18:00:00 3 0 Calma 4 Sur 0 894.2 -- 86
2021-01-20 17:00:00 3.1 0 Calma 10 Este 0 894 -- 86
2021-01-20 16:00:00 3 2 Este 10 Sudeste 0 894.1 -- 85
2021-01-20 15:00:00 3 3 Este 16 Sudeste 0 894.4 -- 85
2021-01-20 14:00:00 3.1 6 Sudeste 19 Sur 0 894.8 -- 86
2021-01-20 13:00:00 2.4 6 Este 13 Este 0 896 -- 87
2021-01-20 12:00:00 2.1 5 Este 13 Sudeste 0 896.8 -- 87
2021-01-20 11:00:00 2 4 Sudeste 17 Este 0 897.3 -- 86
2021-01-20 10:00:00 2.2 6 Este 24 Este 0 897.2 -- 85
2021-01-20 09:00:00 1.8 4 Este 19 Sudeste 0 897.8 -- 85
2021-01-20 08:00:00 1.5 5 Este 21 Sudeste 0 897.9 -- 83
2021-01-20 07:00:00 1.6 5 Sur 26 Sur 0 898.1 -- 81
2021-01-20 06:00:00 1.2 4 Sudoeste 24 Sudeste 0 898.5 -- 83
2021-01-20 05:00:00 1.1 6 Sudeste 16 Sudeste 0 899.8 -- 81
2021-01-20 04:00:00 0.5 0 Calma 13 Nordeste 0 900.7 -- 77
2021-01-20 03:00:00 1.7 4 Este 16 Sudeste 0 901.2 -- 76
2021-01-20 02:00:00 0.8 5 Nordeste 14 Este 0 901.8 -- 87
2021-01-20 01:00:00 -2.7 0 Calma 7 Sur 0 902.9 -- 86
2021-01-20 00:00:00 -2.9 0 Calma 4 Noroeste 0 903.6 -- 84
2021-01-19 23:00:00 -2.1 0 Calma 3 Noroeste 0 903.7 -- 84
2021-01-19 22:00:00 -1.1 0 Calma 6 Noroeste 0 904.5 -- 82
2021-01-19 21:00:00 -0.2 0 Calma 3 Noroeste 0 905 -- 76
2021-01-19 20:00:00 1.3 0 Calma 9 Nordeste 0 905.4 -- 72
2021-01-19 19:00:00 3.2 3 Este 10 Sur 0 905.2 -- 68
2021-01-19 18:00:00 4.7 4 Sudeste 12 Sur 0 905.3 -- 62
2021-01-19 17:00:00 6.2 5 Sudeste 13 Sudeste 0 905.4 -- 56
2021-01-19 16:00:00 7.4 7 Sudeste 13 Sudeste 0 905.9 -- 51
2021-01-19 15:00:00 8.3 7 Sudeste 15 Sudeste 0 906.1 -- 50
2021-01-19 14:00:00 8.3 5 Sur 15 Sudeste 0 907 -- 48
2021-01-19 13:00:00 7.6 2 Sur 7 Sur 0 907.9 -- 48
2021-01-19 12:00:00 4.8 4 Sudeste 8 Sudoeste 0 908.9 -- 54
2021-01-19 11:00:00 1.7 2 Sudoeste 9 Oeste 0 909.2 -- 65
2021-01-19 10:00:00 -1.5 0 Calma 8 Oeste 0 909.3 -- 80
2021-01-19 09:00:00 -5.3 4 Noroeste 5 Noroeste 0 909.4 -- 85
2021-01-19 08:00:00 -5.3 3 Oeste 6 Oeste 0 909.4 -- 85
2021-01-19 07:00:00 -5.2 0 Calma 5 Noroeste 0 909.6 -- 85
2021-01-19 06:00:00 -5 0 Calma 6 Noroeste 0 909.6 -- 85
2021-01-19 05:00:00 -4.4 3 Oeste 6 Oeste 0 910 -- 85
2021-01-19 04:00:00 -4.2 3 Noroeste 5 Noroeste 0 910.4 -- 85
2021-01-19 03:00:00 -3.8 4 Oeste 5 Oeste 0 910.5 -- 85
2021-01-19 02:00:00 -3.5 0 Calma 5 Oeste 0 910.7 -- 85
2021-01-19 01:00:00 -3.4 0 Calma 5 Oeste 0 911.1 -- 85
2021-01-19 00:00:00 -2.9 0 Calma 5 Noroeste 0 911.3 -- 84
2021-01-18 23:00:00 -2.5 2 Noroeste 4 Noroeste 0 911.5 -- 83
2021-01-18 22:00:00 -1.7 3 Noroeste 4 Noroeste 0 911.5 -- 81
2021-01-18 21:00:00 -0.5 0 Calma 3 Noroeste 0 911.2 -- 76
2021-01-18 20:00:00 1 0 Calma 5 Nordeste 0 911 -- 72
2021-01-18 19:00:00 3.8 0 Calma 8 Sudeste 0 910.6 -- 61
2021-01-18 18:00:00 6.7 4 Este 18 Sudeste 0 910 -- 51
2021-01-18 17:00:00 8.7 5 Sudeste 12 Sudeste 0 909.8 -- 45
2021-01-18 16:00:00 10.4 5 Sudeste 12 Sudeste 0 909.6 -- 42
2021-01-18 15:00:00 11.3 5 Sur 12 Sudeste 0 910 -- 40
2021-01-18 14:00:00 10.6 5 Sudeste 10 Sudeste 0 910.3 -- 42
2021-01-18 13:00:00 10.2 5 Sudeste 12 Sur 0 911.1 -- 43
2021-01-18 12:00:00 8.8 2 Sudeste 10 Oeste 0 911.8 -- 50
2021-01-18 11:00:00 4.8 3 Oeste 14 Oeste 0 911.7 -- 64
2021-01-18 10:00:00 1.6 4 Oeste 12 Oeste 0 911.8 -- 77
2021-01-18 09:00:00 -2.1 3 Oeste 12 Oeste 0 911.6 -- 84
2021-01-18 08:00:00 -1.3 5 Oeste 11 Oeste 0 911.7 -- 86
2021-01-18 07:00:00 -1.9 3 Oeste 12 Oeste 0 911.5 -- 84
2021-01-18 06:00:00 -1.8 3 Noroeste 10 Oeste 0 911.1 -- 84
2021-01-18 05:00:00 -1.1 2 Sudoeste 11 Oeste 0 911.3 -- 83
2021-01-18 04:00:00 -1.3 0 Calma 9 Oeste 0 911.8 -- 81
2021-01-18 03:00:00 0.3 6 Oeste 10 Oeste 0 911.9 -- 79
2021-01-18 02:00:00 1 4 Oeste 15 Oeste 0 912 -- 76
2021-01-18 01:00:00 0 0 Calma 9 Noroeste 0 912.3 -- 76
2021-01-18 00:00:00 0.2 0 Calma 9 Oeste 0 912.7 -- 74
2021-01-17 23:00:00 1.3 4 Noroeste 7 Noroeste 0 912.3 -- 71
2021-01-17 22:00:00 1.7 3 Noroeste 10 Oeste 0 912.4 -- 68
2021-01-17 21:00:00 2.2 4 Noroeste 7 Noroeste 0 912.5 -- 64
2021-01-17 20:00:00 4.3 0 Calma 12 Noroeste 0 912.4 -- 51
2021-01-17 19:00:00 5.8 4 Noroeste 15 Noroeste 0 912 -- 40
2021-01-17 18:00:00 8.6 8 Noroeste 19 Noroeste 0 911.8 -- 35
2021-01-17 17:00:00 11.4 6 Noroeste 19 Noroeste 0 911.5 -- 33
2021-01-17 16:00:00 12 9 Noroeste 19 Noroeste 0 911.5 -- 31
2021-01-17 15:00:00 12.6 8 Oeste 24 Noroeste 0 911.5 -- 32
2021-01-17 14:00:00 12.7 10 Noroeste 18 Noroeste 0 911.9 -- 31
2021-01-17 13:00:00 13.4 4 Sur 11 Oeste 0 912.8 -- 24
2021-01-17 12:00:00 10.8 6 Sur 9 Sur 0 913.5 -- 29
2021-01-17 11:00:00 5.8 2 Sudoeste 11 Oeste 0 913.6 -- 38
2021-01-17 10:00:00 2.6 4 Oeste 11 Nordeste 0 913 -- 43
2021-01-17 09:00:00 0.1 0 Calma 15 Noroeste 0 912.8 -- 44
2021-01-17 08:00:00 1.5 6 Nordeste 12 Nordeste 0 912.7 -- 45
2021-01-17 07:00:00 0.7 5 Norte 13 Nordeste 0 912.8 -- 43
2021-01-17 06:00:00 -3 2 Noroeste 15 Oeste 0 912.6 -- 55
2021-01-17 05:00:00 -2 5 Noroeste 15 Oeste 0 912.8 -- 54
2021-01-17 04:00:00 -2 5 Oeste 9 Oeste 0 913.1 -- 56
2021-01-17 03:00:00 -2.2 5 Noroeste 9 Noroeste 0 913.1 -- 56
2021-01-17 02:00:00 -2.5 0 Calma 12 Oeste 0 913.5 -- 54
2021-01-17 01:00:00 -1.1 5 Oeste 9 Noroeste 0 913.9 -- 51
2021-01-17 00:00:00 -0.6 4 Oeste 11 Oeste 0 914.1 -- 50
2021-01-16 23:00:00 -0.6 4 Oeste 9 Oeste 0 913.8 -- 50
2021-01-16 22:00:00 0 6 Oeste 12 Oeste 0 913.9 -- 49
2021-01-16 21:00:00 0.9 5 Oeste 9 Oeste 0 913.5 -- 48
2021-01-16 20:00:00 4.6 4 Sur 21 Norte 0 913 -- 33
2021-01-16 19:00:00 6.7 8 Noroeste 21 Norte 0 912.9 -- 31
2021-01-16 18:00:00 8.1 11 Noroeste 26 Norte 0 912.3 -- 27
2021-01-16 17:00:00 10.4 12 Norte 22 Norte 0 911.8 -- 25
2021-01-16 16:00:00 11.3 11 Noroeste 27 Norte 0 911.5 -- 19
2021-01-16 15:00:00 11.8 10 Noroeste 24 Nordeste 0 911.7 -- 17
2021-01-16 14:00:00 11.3 12 Norte 31 Norte 0 911.9 -- 19
2021-01-16 13:00:00 10.4 14 Noroeste 29 Noroeste 0 912.2 -- 20
2021-01-16 12:00:00 -- 14 Noroeste 27 Noroeste 0 -- -- --
2021-01-16 11:00:00 9.6 9 Nordeste 27 Nordeste 0 912.3 -- 21
2021-01-16 10:00:00 8.6 5 Sudeste 18 Este 0 911.6 -- 23
2021-01-16 09:00:00 5.4 5 Sur 15 Sur 0 911.1 -- 27
2021-01-16 08:00:00 4.7 7 Sur 30 Norte 0 910.8 -- 28
2021-01-16 07:00:00 6.5 15 Norte 41 Norte 0 910.3 -- 26
2021-01-16 06:00:00 5.3 12 Norte 27 Norte 0 910.3 -- 32
2021-01-16 05:00:00 4 3 Norte 19 Noroeste 0 910.4 -- 42
2021-01-16 04:00:00 1.1 3 Sur 10 Sur 0 910.8 -- 50
2021-01-16 03:00:00 0.9 2 Sudoeste 10 Sur 0 910.7 -- 53
2021-01-16 02:00:00 2.3 3 Sudoeste 29 Norte 0 910.9 -- 51
2021-01-16 01:00:00 3.1 10 Norte 34 Norte 0 911.1 -- 50
2021-01-16 00:00:00 3.1 18 Norte 37 Norte 0 911.2 -- 55
2021-01-15 23:00:00 3.2 18 Norte 42 Norte 0 911.1 -- 56
2021-01-15 22:00:00 4.3 20 Noroeste 34 Norte 0 910.9 -- 51
2021-01-15 21:00:00 4.3 20 Noroeste 37 Norte 0 910.6 -- 56
2021-01-15 20:00:00 4.2 19 Norte 41 Norte 0 910.7 -- 55
2021-01-15 19:00:00 4.5 22 Norte 42 Norte 0 910.4 -- 52
2021-01-15 18:00:00 5.5 17 Norte 34 Norte 0 910 -- 39
2021-01-15 17:00:00 7 18 Noroeste 35 Noroeste 0 909.7 -- 34
2021-01-15 16:00:00 7.4 14 Noroeste 36 Noroeste 0 910.4 -- 32
2021-01-15 15:00:00 8.2 9 Norte 34 Noroeste 0 910.4 -- 36
2021-01-15 14:00:00 6.2 13 Norte 35 Norte 0 910.8 -- 43
2021-01-15 13:00:00 6 18 Norte 36 Norte 0 911.4 -- 45
2021-01-15 12:00:00 7.9 0 Calma 10 Oeste 0 911.8 -- 36
2021-01-15 11:00:00 7.2 4 Sudeste 11 Sudeste 0 911.9 -- 43
2021-01-15 10:00:00 5.3 0 Calma 22 Noroeste 0 911.7 -- 52
2021-01-15 09:00:00 2.8 3 Norte 39 Norte 0 911.1 -- 58
2021-01-15 08:00:00 3.1 18 Norte 43 Norte 0 910.8 -- 61
2021-01-15 07:00:00 2.9 20 Noroeste 52 Norte 0 910.8 -- 64
2021-01-15 06:00:00 3.1 22 Noroeste 53 Norte 0 910.6 -- 68
2021-01-15 05:00:00 3.6 19 Noroeste 41 Noroeste 0 910.7 -- 67
2021-01-15 04:00:00 4.2 14 Norte 34 Norte 0 910.9 -- 68
2021-01-15 03:00:00 4.4 12 Norte 35 Norte 0 910.8 -- 70
2021-01-15 02:00:00 4.4 8 Norte 36 Norte 0 910.8 -- 68
2021-01-15 01:00:00 5 19 Noroeste 41 Norte 0 911.2 -- 68
2021-01-15 00:00:00 4.9 13 Noroeste 37 Noroeste 0 911.7 -- 73
2021-01-14 23:00:00 4.7 15 Noroeste 36 Norte 0 911.5 -- 74
2021-01-14 22:00:00 4.9 14 Norte 39 Norte 0 911.6 -- 74
2021-01-14 21:00:00 5 5 Noroeste 27 Noroeste 0 911.3 -- 69
2021-01-14 20:00:00 5.6 16 Noroeste 31 Norte 0 911 -- 63
2021-01-14 19:00:00 6 14 Norte 31 Noroeste 0 910.9 -- 51
2021-01-14 18:00:00 6.1 17 Noroeste 41 Noroeste 0 910.3 -- 47
2021-01-14 17:00:00 7.9 14 Noroeste 29 Noroeste 0 910.3 -- 28
2021-01-14 16:00:00 10.8 6 Norte 33 Noroeste 0 909.7 -- 21
2021-01-14 15:00:00 10.4 16 Noroeste 34 Noroeste 0 909.2 -- 22
2021-01-14 14:00:00 9.8 13 Norte 38 Noroeste 0 909.9 -- 24
2021-01-14 13:00:00 9.2 21 Noroeste 39 Norte 0 910.3 -- 22
2021-01-14 12:00:00 11.3 9 Noroeste 21 Oeste 0 910.5 -- 23
2021-01-14 11:00:00 5.8 8 Oeste 19 Noroeste 0 910.6 -- 31
2021-01-14 10:00:00 1.8 8 Noroeste 22 Oeste 0 910.8 -- 36
2021-01-14 09:00:00 0.1 7 Noroeste 18 Noroeste 0 910.6 -- 40
2021-01-14 08:00:00 -1.3 5 Oeste 14 Sudoeste 0 910.6 -- 43
2021-01-14 07:00:00 -2.7 6 Oeste 16 Noroeste 0 910.5 -- 45
2021-01-14 06:00:00 -1.3 5 Oeste 17 Oeste 0 910.5 -- 43
2021-01-14 05:00:00 -2.6 8 Oeste 14 Oeste 0 910.8 -- 48
2021-01-14 04:00:00 -3 3 Oeste 12 Sudoeste 0 911.3 -- 49
2021-01-14 03:00:00 -2.4 5 Noroeste 11 Oeste 0 911.3 -- 47
2021-01-14 02:00:00 -1.3 5 Oeste 13 Oeste 0 911.2 -- 46
2021-01-14 01:00:00 -0.6 5 Oeste 12 Oeste 0 911.9 -- 43
2021-01-14 00:00:00 -0.2 5 Oeste 15 Oeste 0 912.1 -- 43
2021-01-13 23:00:00 0.4 6 Oeste 14 Noroeste 0 912.2 -- 43
2021-01-13 22:00:00 1 5 Noroeste 10 Noroeste 0 912 -- 43
2021-01-13 21:00:00 2.3 3 Sudoeste 13 Sudoeste 0 911.8 -- 42
2021-01-13 20:00:00 3.1 0 Calma 13 Oeste 0 911.7 -- 40
2021-01-13 19:00:00 2.7 0 Calma 9 Noroeste 0 911.1 -- 38
2021-01-13 18:00:00 8.5 4 Noroeste 13 Noroeste 0 911 -- 23
2021-01-13 17:00:00 10.7 6 Noroeste 20 Noroeste 0 910.9 -- 21
2021-01-13 16:00:00 11.7 5 Noroeste 21 Nordeste 0 910.9 -- 20
2021-01-13 15:00:00 12.9 4 Nordeste 14 Norte 0 911 -- 19
2021-01-13 14:00:00 11.6 8 Noroeste 31 Norte 0 911.4 -- 22
2021-01-13 13:00:00 12.3 5 Norte 17 Noroeste 0 912.3 -- 20
2021-01-13 12:00:00 9.7 0 Calma 12 Oeste 0 912.6 -- 26
2021-01-13 11:00:00 5.3 0 Calma 11 Noroeste 0 912.6 -- 37
2021-01-13 10:00:00 1.1 5 Oeste 13 Oeste 0 912.4 -- 42
2021-01-13 09:00:00 -4.8 2 Noroeste 13 Oeste 0 912.2 -- 57
2021-01-13 08:00:00 -3.8 5 Noroeste 12 Oeste 0 912.2 -- 54
2021-01-13 07:00:00 -5.1 3 Noroeste 12 Oeste 0 912.1 -- 56
2021-01-13 06:00:00 -3.6 4 Oeste 14 Oeste 0 911.9 -- 53
2021-01-13 05:00:00 -5.1 5 Oeste 12 Oeste 0 912.1 -- 56
2021-01-13 04:00:00 -5.2 4 Oeste 15 Sudoeste 0 912.2 -- 54
2021-01-13 03:00:00 -4.7 4 Oeste 16 Oeste 0 912.5 -- 54
2021-01-13 02:00:00 -4.9 4 Noroeste 10 Noroeste 0 912.5 -- 54
2021-01-13 01:00:00 -3.9 6 Noroeste 14 Oeste 0 912.8 -- 51
2021-01-13 00:00:00 -2.8 5 Oeste 13 Oeste 0 913 -- 51
2021-01-12 23:00:00 -3.3 4 Oeste 13 Norte 0 912.8 -- 54
2021-01-12 22:00:00 -1.5 3 Sur 15 Noroeste 0 912.9 -- 49
2021-01-12 21:00:00 -2.5 3 Noroeste 11 Este 0 912.5 -- 53
2021-01-12 20:00:00 0.7 4 Sur 10 Sudeste 0 912.1 -- 49
2021-01-12 19:00:00 2.3 0 Calma 19 Noroeste 0 911.8 -- 40
2021-01-12 18:00:00 4.8 4 Norte 19 Noroeste 0 911.5 -- 35
2021-01-12 17:00:00 7.6 6 Norte 18 Noroeste 0 911.2 -- 28
2021-01-12 16:00:00 8.3 8 Nordeste 17 Norte 0 910.9 -- 26
2021-01-12 15:00:00 9.2 6 Norte 19 Norte 0 910.6 -- 24
2021-01-12 14:00:00 9 8 Norte 21 Norte 0 910.8 -- 25
2021-01-12 13:00:00 8.4 6 Norte 20 Norte 0 911.3 -- 28
2021-01-12 12:00:00 7 3 Noroeste 16 Oeste 0 911.7 -- 36
2021-01-12 11:00:00 0.6 2 Oeste 17 Oeste 0 911.3 -- 48
2021-01-12 10:00:00 -3.9 4 Oeste 15 Oeste 0 911.1 -- 54
2021-01-12 09:00:00 -7 5 Oeste 14 Oeste 0 910.5 -- 60
2021-01-12 08:00:00 -6.7 4 Noroeste 13 Oeste 0 910.2 -- 60
2021-01-12 07:00:00 -8.4 4 Oeste 13 Oeste 0 909.7 -- 63
2021-01-12 06:00:00 -11.2 3 Noroeste 9 Noroeste 0 909.6 -- 67
2021-01-12 05:00:00 -9.1 4 Oeste 12 Sudoeste 0 909.5 -- 66
2021-01-12 04:00:00 -10 4 Oeste 9 Oeste 0 909.8 -- 67
2021-01-12 03:00:00 -8.8 5 Oeste 11 Oeste 0 909.4 -- 66
2021-01-12 02:00:00 -9.6 6 Oeste 10 Oeste 0 909.1 -- 66
2021-01-12 01:00:00 -8.8 4 Oeste 14 Oeste 0 908.8 -- 68
2021-01-12 00:00:00 -10.6 4 Oeste 11 Oeste 0 908.8 -- 68
2021-01-11 23:00:00 -9.2 5 Noroeste 10 Oeste 0 908.5 -- 69
2021-01-11 22:00:00 -9.6 4 Oeste 12 Oeste 0 908.2 -- 66
2021-01-11 21:00:00 -6.4 5 Oeste 10 Oeste 0 907.5 -- 64
2021-01-11 20:00:00 -5.6 3 Oeste 8 Oeste 0 907.2 -- 60
2021-01-11 19:00:00 -3.9 3 Norte 20 Norte 0 906.7 -- 49
2021-01-11 18:00:00 -0.3 4 Norte 18 Norte 0 905.9 -- 43
2021-01-11 17:00:00 1.7 12 Noroeste 29 Norte 0 905.4 -- 41
2021-01-11 16:00:00 2.6 13 Noroeste 29 Noroeste 0 905.1 -- 36
2021-01-11 15:00:00 2.6 15 Norte 31 Noroeste 0 904.4 -- 35
2021-01-11 14:00:00 2.5 14 Noroeste 37 Noroeste 0 904 -- 36
2021-01-11 13:00:00 2.1 18 Norte 43 Norte 0 904.2 -- 37
2021-01-11 12:00:00 1.4 16 Norte 47 Norte 0 904.6 -- 40
2021-01-11 11:00:00 0.5 19 Norte 46 Norte 0 904 -- 43
2021-01-11 10:00:00 -2.9 2 Sur 15 Oeste 0 903.5 -- 54
2021-01-11 09:00:00 -6.4 2 Sudoeste 12 Sudoeste 0 903.2 -- 58
2021-01-11 08:00:00 -4.4 5 Sudoeste 39 Oeste 0 902.7 -- 50
2021-01-11 07:00:00 -2.6 12 Noroeste 38 Noroeste 0 902.1 -- 49
2021-01-11 06:00:00 -5.2 7 Oeste 33 Norte 0 901.9 -- 55
2021-01-11 05:00:00 -2.2 19 Noroeste 38 Norte 0 901.5 -- 53
2021-01-11 04:00:00 -1.9 21 Noroeste 46 Norte 0 901.2 -- 53
2021-01-11 03:00:00 -2 19 Noroeste 47 Norte 0 901.2 -- 54
2021-01-11 02:00:00 -2.5 22 Norte 44 Norte 0 901.2 -- 57
2021-01-11 01:00:00 -2.5 18 Norte 33 Norte 0 901.3 -- 56
2021-01-11 00:00:00 -2.7 15 Norte 33 Norte 0 901 -- 59
2021-01-10 23:00:00 -2.3 12 Norte 29 Norte 0 900.9 -- 61
2021-01-10 22:00:00 -1.1 13 Noroeste 34 Norte 0 900.9 -- 63
2021-01-10 21:00:00 -0.6 10 Noroeste 31 Noroeste 0 900 -- 63
2021-01-10 20:00:00 -0.2 10 Noroeste 28 Noroeste 0 899.4 -- 63
2021-01-10 19:00:00 0 11 Noroeste 28 Norte 0 898.9 -- 64
2021-01-10 18:00:00 0.5 13 Norte 29 Norte 0 898 -- 62
2021-01-10 17:00:00 1.4 8 Norte 22 Norte 0 897.6 -- 60
2021-01-10 16:00:00 1.9 8 Noroeste 21 Noroeste 0 896.7 -- 60
2021-01-10 15:00:00 2.4 9 Norte 20 Norte 0 896.3 -- 59
2021-01-10 14:00:00 2 9 Noroeste 24 Norte 0 896 -- 60
2021-01-10 13:00:00 2.3 2 Noroeste 8 Oeste 0 896.1 -- 64
2021-01-10 12:00:00 1.4 2 Sudoeste 7 Norte 0 896.4 -- 67
2021-01-10 11:00:00 -0.5 5 Oeste 10 Sudoeste 0 896 -- 73
2021-01-10 10:00:00 -3.5 3 Sudeste 8 Sudeste 0 895 -- 82
2021-01-10 09:00:00 -5.1 3 Sudeste 9 Sudeste 0 894.1 -- 84
2021-01-10 08:00:00 -4.8 4 Sudeste 9 Sudeste 0 893.8 -- 84
2021-01-10 07:00:00 -3.8 2 Sudeste 7 Sudeste 0 893.4 -- 84
2021-01-10 06:00:00 -2.9 3 Sudeste 8 Sudeste 0 893 -- 85
2021-01-10 05:00:00 -3.6 0 Calma 4 Sudeste 0 892.9 -- 84
2021-01-10 04:00:00 -4 4 Sudeste 6 Sudeste 0 893 -- 84
2021-01-10 03:00:00 -3.1 0 Calma 4 Sudeste 0 892.7 -- 85
2021-01-10 02:00:00 -2.7 0 Calma 8 Sudeste 0 892.6 -- 85
2021-01-10 01:00:00 -3.4 0 Calma 3 Sudeste 0 892.6 -- 85
2021-01-10 00:00:00 -1.9 0 Calma 4 Sudeste 0 892.4 -- 85
2021-01-09 23:00:00 -0.9 0 Calma 0 Calma 0 892.5 -- 85
2021-01-09 22:00:00 -0.6 0 Calma 4 Sudeste 0 891.7 -- 85
2021-01-09 21:00:00 -0.7 3 Sudeste 17 Sudeste 0 891.2 -- 85
2021-01-09 20:00:00 -0.6 7 Sudeste 17 Sudeste 0 890.3 -- 85
2021-01-09 19:00:00 -0.5 4 Sudeste 13 Sudeste 0 889.2 -- 84
2021-01-09 18:00:00 -0.1 5 Sudeste 14 Sudeste 0 888.8 -- 83
2021-01-09 17:00:00 0.4 0 Calma 6 Sur 0 887.8 -- 80
2021-01-09 16:00:00 0.3 0 Calma 8 Oeste 0 887.2 -- 78
2021-01-09 15:00:00 0.5 0 Calma 5 Nordeste 0 886.6 -- 77
2021-01-09 14:00:00 -0.3 0 Calma 10 Oeste 0 887.1 -- 81
2021-01-09 13:00:00 -0.6 5 Oeste 16 Sudoeste 0 887.4 -- 82
2021-01-09 12:00:00 -0.9 6 Oeste 15 Sudoeste 0 888.2 -- 82
2021-01-09 11:00:00 -1 7 Oeste 12 Oeste 0 888.3 -- 82
2021-01-09 10:00:00 -1.2 0 Calma 10 Norte 0 888.4 -- 82
2021-01-09 09:00:00 -1.8 3 Norte 10 Norte 0 888.3 -- 84
2021-01-09 08:00:00 -1.8 0 Calma 6 Norte 0 888 -- 84
2021-01-09 07:00:00 -1.9 0 Calma 8 Oeste 0 887.8 -- 84
2021-01-09 06:00:00 -1.8 0 Calma 8 Oeste 0 888.1 -- 84
2021-01-09 05:00:00 -1.8 2 Oeste 6 Sudoeste 0 888.5 -- 84
2021-01-09 04:00:00 -2 4 Oeste 6 Oeste 0 888.9 -- 83
2021-01-09 03:00:00 -1.8 0 Calma 8 Norte 0 889.1 -- 83
2021-01-09 02:00:00 -1.7 0 Calma 11 Nordeste 0 889.5 -- 82
2021-01-09 01:00:00 -1.4 3 Nordeste 11 Norte 0 889.5 -- 83
2021-01-09 00:00:00 -0.9 2 Nordeste 7 Nordeste 0 890.4 -- 83
2021-01-08 23:00:00 -0.4 0 Calma 2 Nordeste 0 890.9 -- 83
2021-01-08 22:00:00 -0.4 0 Calma 3 Norte 0 891.1 -- 84
2021-01-08 21:00:00 -0.1 0 Calma 5 Norte 0 891.6 -- 84
2021-01-08 20:00:00 0.1 0 Calma 2 Oeste 0 891.6 -- 84
2021-01-08 19:00:00 0.1 0 Calma 4 Oeste 0 891.4 -- 83
2021-01-08 18:00:00 0.2 0 Calma 7 Sudoeste 0 891.8 -- 82
2021-01-08 17:00:00 0.4 2 Oeste 8 Sudoeste 0 892.2 -- 77
2021-01-08 16:00:00 1 0 Calma 9 Sur 0 892.1 -- 71
2021-01-08 15:00:00 2 5 Sur 9 Sur 0 892.6 -- 57
2021-01-08 14:00:00 2.4 4 Sur 7 Sur 0 892.9 -- 49
2021-01-08 13:00:00 0.6 3 Oeste 5 Oeste 0 894.3 -- 49
2021-01-08 12:00:00 -0.3 0 Calma 4 Este 0 894.9 -- 59
2021-01-08 11:00:00 -2.7 3 Este 8 Sudoeste 0 895.7 -- 65
2021-01-08 10:00:00 -5 3 Oeste 11 Oeste 0 895.8 -- 67
2021-01-08 09:00:00 -7.1 3 Noroeste 10 Oeste 0 895.5 -- 71
2021-01-08 08:00:00 -8.8 4 Noroeste 6 Noroeste 0 895.2 -- 76
2021-01-08 07:00:00 -8.8 0 Calma 7 Oeste 0 895.5 -- 75
2021-01-08 06:00:00 -8.4 3 Oeste 8 Oeste 0 895.7 -- 76
2021-01-08 05:00:00 -9 2 Noroeste 7 Oeste 0 896.1 -- 76
2021-01-08 04:00:00 -9 0 Calma 6 Noroeste 0 896.5 -- 77
2021-01-08 03:00:00 -8.6 0 Calma 9 Oeste 0 896.9 -- 76
2021-01-08 02:00:00 -8.8 2 Noroeste 4 Oeste 0 896.7 -- 76
2021-01-08 01:00:00 -8.4 0 Calma 4 Noroeste 0 897 -- 77
2021-01-08 00:00:00 -7.5 4 Noroeste 6 Noroeste 0 897.1 -- 76
2021-01-07 23:00:00 -6.9 2 Noroeste 7 Noroeste 0 897.2 -- 76
2021-01-07 22:00:00 -6.4 2 Noroeste 5 Noroeste 0 896.7 -- 75
2021-01-07 21:00:00 -5.3 0 Calma 5 Noroeste 0 897.2 -- 71
2021-01-07 20:00:00 -3.6 4 Noroeste 9 Noroeste 0 897 -- 67
2021-01-07 19:00:00 -3.1 3 Noroeste 5 Noroeste 0 897 -- 66
2021-01-07 18:00:00 0.4 0 Calma 5 Sudeste 0 896.4 -- 53
2021-01-07 17:00:00 1.2 0 Calma 4 Nordeste 0 896.1 -- 50
2021-01-07 16:00:00 1.3 0 Calma 4 Oeste 0 895.9 -- 51
2021-01-07 15:00:00 0.7 2 Sudoeste 6 Oeste 0 895.5 -- 58
2021-01-07 14:00:00 0 0 Calma 5 Oeste 0 895.6 -- 64
2021-01-07 13:00:00 -0.5 0 Calma 4 Oeste 0 896.1 -- 67
2021-01-07 12:00:00 -1.7 0 Calma 7 Sudoeste 0 896.9 -- 71
2021-01-07 11:00:00 -2.8 0 Calma 6 Oeste 0 897.2 -- 75
2021-01-07 10:00:00 -3.7 3 Oeste 8 Oeste 0 897.1 -- 77
2021-01-07 09:00:00 -4.7 0 Calma 6 Noroeste 0 896.2 -- 77
2021-01-07 08:00:00 -4.3 3 Noroeste 5 Noroeste 0 896.1 -- 76
2021-01-07 07:00:00 -4.4 0 Calma 6 Noroeste 0 895.8 -- 77
2021-01-07 06:00:00 -5.3 0 Calma 4 Noroeste 0 895.6 -- 77
2021-01-07 05:00:00 -4.8 0 Calma 5 Oeste 0 895.8 -- 77
2021-01-07 04:00:00 -4.8 0 Calma 4 Noroeste 0 896.1 -- 77
2021-01-07 03:00:00 -5.2 0 Calma 3 Noroeste 0 896.4 -- 76
2021-01-07 02:00:00 -5 0 Calma 5 Oeste 0 896.7 -- 76
2021-01-07 01:00:00 -5.1 3 Oeste 7 Oeste 0 897 -- 76
2021-01-07 00:00:00 -5.7 3 Noroeste 5 Noroeste 0 897.2 -- 76
2021-01-06 23:00:00 -4.6 4 Noroeste 9 Oeste 0 897.3 -- 75
2021-01-06 22:00:00 -4.3 3 Noroeste 5 Noroeste 0 897.6 -- 73
2021-01-06 21:00:00 -3.4 0 Calma 5 Nordeste 0 897.9 -- 67
2021-01-06 20:00:00 -1.4 0 Calma 5 Noroeste 0 897.7 -- 61
2021-01-06 19:00:00 -0.9 0 Calma 8 Nordeste 0 897.4 -- 53
2021-01-06 18:00:00 1.8 3 Este 10 Sudeste 0 896.7 -- 42
2021-01-06 17:00:00 4 7 Sudeste 13 Sudeste 0 896.2 -- 36
2021-01-06 16:00:00 4.7 5 Sudeste 11 Sudeste 0 896.1 -- 33
2021-01-06 15:00:00 4.7 4 Norte 12 Nordeste 0 896.1 -- 33
2021-01-06 14:00:00 4.7 0 Calma 8 Sudeste 0 896.7 -- 35
2021-01-06 13:00:00 3.1 4 Sudeste 9 Sudeste 0 897.2 -- 43
2021-01-06 12:00:00 0.9 2 Oeste 9 Oeste 0 898 -- 55
2021-01-06 11:00:00 -2.3 5 Oeste 9 Oeste 0 898.1 -- 64
2021-01-06 10:00:00 -4.5 2 Sudoeste 7 Oeste 0 898.1 -- 74
2021-01-06 09:00:00 -7.9 3 Sur 7 Noroeste 0 897.8 -- 79
2021-01-06 08:00:00 -- 3 Sudoeste 7 Oeste 0 -- -- --
2021-01-06 07:00:00 -8.2 2 Noroeste 5 Noroeste 0 896.8 -- 79
2021-01-06 06:00:00 -7.6 0 Calma 7 Oeste 0 896.5 -- 79
2021-01-06 05:00:00 -8 0 Calma 4 Noroeste 0 896.6 -- 79
2021-01-06 04:00:00 -7.8 0 Calma 4 Noroeste 0 896.8 -- 76
2021-01-06 03:00:00 -7.3 0 Calma 4 Noroeste 0 896.7 -- 76
2021-01-06 02:00:00 -6.5 0 Calma 7 Sudoeste 0 896.3 -- 76
2021-01-06 01:00:00 -6.2 3 Noroeste 6 Noroeste 0 896.2 -- 76
2021-01-06 00:00:00 -5.8 4 Oeste 6 Oeste 0 895.7 -- 76
2021-01-05 23:00:00 -5.5 4 Noroeste 5 Noroeste 0 896.3 -- 74
2021-01-05 22:00:00 -5 0 Calma 4 Noroeste 0 896.1 -- 70
2021-01-05 21:00:00 -4.2 2 Oeste 4 Oeste 0 896.2 -- 66
2021-01-05 20:00:00 -2.5 4 Noroeste 8 Noroeste 0 895.8 -- 60
2021-01-05 19:00:00 -1.5 0 Calma 9 Oeste 0 895.3 -- 52
2021-01-05 18:00:00 1 4 Noroeste 11 Norte 0 894.7 -- 43
2021-01-05 17:00:00 3.2 5 Norte 18 Nordeste 0 894.6 -- 37
2021-01-05 16:00:00 3.4 8 Norte 20 Norte 0 894.4 -- 38
2021-01-05 15:00:00 3.6 9 Nordeste 18 Nordeste 0 894.6 -- 38
2021-01-05 14:00:00 2.8 9 Nordeste 17 Nordeste 0 894.8 -- 42
2021-01-05 13:00:00 3 2 Este 11 Este 0 895.5 -- 40
2021-01-05 12:00:00 2.3 3 Oeste 8 Sudeste 0 896 -- 43
2021-01-05 11:00:00 1.4 2 Sudeste 11 Nordeste 0 896.4 -- 57
2021-01-05 10:00:00 -1.9 4 Norte 13 Norte 0 896.4 -- 71
2021-01-05 09:00:00 -6.7 5 Nordeste 10 Sudoeste 0 896.4 -- 79
2021-01-05 08:00:00 -7.4 0 Calma 9 Noroeste 0 895.9 -- 76
2021-01-05 07:00:00 -7.1 0 Calma 8 Norte 0 895.6 -- 76
2021-01-05 06:00:00 -5.6 4 Noroeste 11 Noroeste 0 895.2 -- 76
2021-01-05 05:00:00 -5.4 0 Calma 9 Noroeste 0 895.4 -- 76
2021-01-05 04:00:00 -4.8 3 Oeste 11 Norte 0 895.4 -- 75
2021-01-05 03:00:00 -5.2 2 Norte 8 Noroeste 0 895.5 -- 72
2021-01-05 02:00:00 -2.5 6 Norte 13 Norte 0 895.3 -- 72
2021-01-05 01:00:00 -2.1 4 Noroeste 7 Noroeste 0 895.6 -- 71
2021-01-05 00:00:00 -0.5 3 Noroeste 19 Noroeste 0 895.5 -- 70
2021-01-04 23:00:00 -0.2 9 Noroeste 18 Noroeste 0 895.4 -- 72
2021-01-04 22:00:00 -0.7 5 Oeste 32 Noroeste 0 895.4 -- 72
2021-01-04 21:00:00 0.9 8 Noroeste 26 Oeste 0 894.6 -- 50
2021-01-04 20:00:00 1.1 9 Noroeste 24 Oeste 0 894.6 -- 50
2021-01-04 19:00:00 0.9 6 Oeste 19 Sudoeste 0 894.6 -- 48
2021-01-04 18:00:00 1.2 5 Oeste 17 Oeste 0 894.1 -- 45
2021-01-04 17:00:00 1.7 11 Oeste 24 Oeste 0 894 -- 43
2021-01-04 16:00:00 2.4 6 Oeste 30 Noroeste 0 893.9 -- 42
2021-01-04 15:00:00 4 8 Oeste 30 Sudoeste 0 893.4 -- 40
2021-01-04 14:00:00 2.8 11 Noroeste 35 Oeste 0 893.7 -- 43
2021-01-04 13:00:00 2.6 9 Oeste 33 Noroeste 0 894.3 -- 45
2021-01-04 12:00:00 1.8 12 Noroeste 31 Noroeste 0 894.9 -- 50
2021-01-04 11:00:00 0.5 9 Noroeste 25 Noroeste 0 895.5 -- 57
2021-01-04 10:00:00 0.2 9 Noroeste 20 Noroeste 0 895.5 -- 61
2021-01-04 09:00:00 -0.1 9 Oeste 17 Oeste 0 895.4 -- 62
2021-01-04 08:00:00 -0.5 4 Oeste 17 Oeste 0 895.6 -- 64
2021-01-04 07:00:00 -0.4 7 Oeste 24 Oeste 0 895.7 -- 68
2021-01-04 06:00:00 -0.3 7 Noroeste 19 Noroeste 0 895.5 -- 71
2021-01-04 05:00:00 0.2 9 Oeste 19 Oeste 0 895.6 -- 67
2021-01-04 04:00:00 0.2 10 Noroeste 22 Oeste 0 896.1 -- 69
2021-01-04 03:00:00 0.3 4 Oeste 25 Oeste 0 896 -- 71
2021-01-04 02:00:00 0.3 11 Noroeste 21 Noroeste 0 896 -- 73
2021-01-04 01:00:00 0.4 2 Oeste 28 Oeste 0 896.2 -- 71
2021-01-04 00:00:00 1.2 8 Oeste 32 Oeste 0 896.8 -- 62
2021-01-03 23:00:00 1.5 10 Oeste 26 Oeste 0 897 -- 60
2021-01-03 22:00:00 0.7 3 Sudoeste 9 Noroeste 0 897.2 -- 64
2021-01-03 21:00:00 -0.6 0 Calma 10 Este 0 897.5 -- 67
2021-01-03 20:00:00 -0.7 4 Norte 14 Sur 0 897.5 -- 66
2021-01-03 19:00:00 0.3 6 Sur 15 Sur 0 897.4 -- 60
2021-01-03 18:00:00 1.5 4 Oeste 24 Oeste 0 897.4 -- 49
2021-01-03 17:00:00 3.5 11 Oeste 26 Oeste 0 897.1 -- 43
2021-01-03 16:00:00 4.5 15 Oeste 28 Oeste 0 897.3 -- 43
2021-01-03 15:00:00 4.3 19 Oeste 36 Oeste 0 897.6 -- 45
2021-01-03 14:00:00 3.6 16 Oeste 34 Oeste 0 898.1 -- 48
2021-01-03 13:00:00 3.5 14 Oeste 39 Noroeste 0 898.7 -- 48
2021-01-03 12:00:00 2.5 13 Noroeste 33 Oeste 0 899.2 -- 51
2021-01-03 11:00:00 0.7 5 Oeste 21 Noroeste 0 899.4 -- 59
2021-01-03 10:00:00 -0.6 10 Noroeste 18 Oeste 0 899.4 -- 63
2021-01-03 09:00:00 -0.3 10 Noroeste 23 Noroeste 0 898.9 -- 62
2021-01-03 08:00:00 -1.2 7 Noroeste 20 Oeste 0 898.8 -- 65
2021-01-03 07:00:00 -1.9 6 Noroeste 15 Noroeste 0 898.7 -- 63
2021-01-03 06:00:00 -0.9 0 Calma 10 Noroeste 0 898.8 -- 58
2021-01-03 05:00:00 -0.6 4 Noroeste 26 Oeste 0 898.7 -- 56
2021-01-03 04:00:00 -0.1 7 Oeste 30 Sudoeste 0 898.7 -- 53
2021-01-03 03:00:00 0.1 10 Oeste 31 Sudoeste 0 898.7 -- 53
2021-01-03 02:00:00 0.1 10 Oeste 49 Oeste 0 898.6 -- 52
2021-01-03 01:00:00 -0.4 8 Sudoeste 23 Noroeste 0 898.7 -- 56
2021-01-03 00:00:00 -0.2 12 Noroeste 38 Norte 0 899.2 -- 54
2021-01-02 23:00:00 -0.8 9 Norte 37 Noroeste 0 899.6 -- 54
2021-01-02 22:00:00 -1 14 Norte 34 Noroeste 0 899.3 -- 54
2021-01-02 21:00:00 -1.2 9 Noroeste 31 Noroeste 0 899.1 -- 55
2021-01-02 20:00:00 -0.8 9 Noroeste 42 Noroeste 0 899.1 -- 54
2021-01-02 19:00:00 -0.4 23 Noroeste 54 Noroeste 0 897.9 -- 57
2021-01-02 18:00:00 -0.4 21 Noroeste 53 Noroeste 0 897.7 -- 58
2021-01-02 17:00:00 0 14 Noroeste 40 Noroeste 0 897.7 -- 54
2021-01-02 16:00:00 0.1 15 Noroeste 43 Noroeste 0 897.1 -- 56
2021-01-02 15:00:00 -0.4 3 Noroeste 30 Norte 0 897.4 -- 57
2021-01-02 14:00:00 -0.6 7 Oeste 41 Norte 0 897.3 -- 58